User: anonymous   Login
Location: Unspecified
(0.0000°N, 0.0000°E)
Time: 08:03:05
(UTC+00:00)
Language:

MAROC-TUBSAT - Orbit

View from above orbital plane
View from above orbital plane
View from above satellite
View from above satellite

Ground track
Ground track

The orbit data is extracted from the following two-line orbital elements,

1 27004U 01056D   18147.90322264 -.00000043 +00000-0 +64701-6 0  9996
2 27004 099.4076 284.0870 0020188 159.4690 316.3052 13.70129068823259
Epoch (UTC): 27 May 2018 21:40:38
Eccentricity: 0.0020188
inclination: 99.4076°
perigee height: 984 km
apogee height: 1014 km
right ascension of ascending node: 284.0870°
argument of perigee: 159.4690°
revolutions per day: 13.70129068
mean anomaly at epoch: 316.3052°
orbit number at epoch: 82325

The dashed part of the orbit path shows where the satellite is in the earth's shadow,  

DLR